DECAYED

STARLINK-31347, 59183 (Decayed)

Orbit data source: Space-Track

STARLINK-31347, 59183 was a payload satellite owned by SpaceX/Seattle (US) in LEO that was launched on Sun, 10 Mar 2024 UTC via an FALCON 9 launch vehicle from the Air Force Eastern Test Range (AFETR). Payload-class satellites include a variety of spacecraft equipped with specific instruments for various scientific and technological missions. These include communications satellites like Starlink; space stations such as the ISS; scientific satellites like the Hubble; Earth observation satellites from companies like Planet Labs, Umbra, and HawkEye 360; GPS; miniature CubeSats for education and research; and military/defense satellites.

Not visible in the next 10 days
Identifier
59183, 2024-045F
Orbit
Decayed
Country
Flag of USUS
Related business
Manufacturer
SpaceX/Seattle
Mission
Decayed Commercial Communications
Bus & Motor
STARLINK V2M, Unknown motor
Mass
730 kg wet, ~700 kg dry
Launch date (UTC)
2024-03-10 (2 years ago)
Launch vehicle
FALCON 9
Launch site
Air Force Eastern Test Range (AFETR)
Object type
Payload
Rocket body
Debris
Shape & HBR
Box + 2 Pan, 17.7 m
Radar Cross Section
33.884 m², Large (>1 m²)

Expand to show TLE details & history
Last TLE update: 1 year ago

TLE from 1 year ago
0 STARLINK-31347
1 59183U 24045F   25102.79218414  .26278091  89751-5  62090-2 0  9996
2 59183  42.9874 117.0402 0007979 148.8782  22.3534 16.28584291 63089
Epoch: 2025-04-12T19:00Z
TLE epoch observation values (Epoch: 2025-04-12T19:00:44.709Z)
Latitude
5.91948°
Longitude
164.27338°
Altitude
190.685 km
Speed
7.797 km/s
True Right ascension
19h 22m 45s
True Declination
5° 52' 53"
Sunlit
Object was in daylight at epoch
Visualization orbit readout
Latitude
Unknown
Longitude
Unknown
Altitude
Unknown
Speed
Unknown
Apparent Right ascension
Unknown
Apparent Declination
Unknown
Sunlit
N/A
Visualization observer readout
Local Sidereal Time
21:27:26
Azimuth
Unknown
Elevation
Unknown
Doppler factor
Unknown
Orbital elements
Apogee altitude
203.626 km
Perigee altitude
193.132 km
Semi-major axis
6,576.516 km
Eccentricity
0.0008
Inclination
42.9874°
RAAN
117.0402°
Arg. of periapsis
148.8782°
True anomaly
22.38821°
Mean anomaly
22.3534°
Eccentric anomaly
22.3708°
Mean motion
4.06958 °/min
Orbital period
88.46 mins
BSTAR
0.006209
Loading maneuver chart data...
Computing Atmospheric mass density...
Loading historical data...
Loading historical data...
Loading historical data...
Loading historical data...
Loading historical data...
Loading historical data...
Loading historical data...

Documentation

Showing up to 5 results
|